Torna al catalogo

DELTA 1 R/B(1)

AttivoUNKNOWN
NORAD 11636·ROCKET BODY·🇺🇸 United States

Lanciato Dec 7, 1979 da Cape Canaveral Space Force Station

Loading…

Prossimi Passaggi (prossime 24 ore)

TLE

AggiornatoSource: Space-Track

Epoca: Sep 14, 2026, 16:37 UTC

1 11636U 79101B   26257.69301895  .00000030  00000-0 -21085-4 0  9992
2 11636  28.2176  28.9827 1261044   0.8806 359.3628 12.21287107  8017

Traccia DELTA 1 R/B(1) in tempo reale con AllMySat

Download on the App Store